Weather reports worldwide

Advertisment
Tyler, tx, United States of America (2074041): temperature & dewpoint: 17.01.2019 17:00:00 - 23.01.2019 17:00:00 (CST)Tyler, tx, United States of America (2074041): wind speed & gusts: 17.01.2019 17:00:00 - 23.01.2019 17:00:00 (CST)Tyler, tx, United States of America (2074041): wind direction: 17.01.2019 17:00:00 - 23.01.2019 17:00:00 (CST)Tyler, tx, United States of America (2074041): reduced air pressure: 17.01.2019 17:00:00 - 23.01.2019 17:00:00 (CST)Tyler, tx, United States of America (2074041): visibility: 17.01.2019 17:00:00 - 23.01.2019 17:00:00 (CST)Tyler, tx, United States of America (2074041): precipitation: 17.01.2019 17:00:00 - 23.01.2019 17:00:00 (CST)
Date & Time tt [°C] td [°C] ff [km/h] ff [kn] fx [km/h] fx [kn] dd ppp [hPa] vv [km] rr [mm]
23.01.2019 17:00:00 5,6 -3,9 16 9 - - NW 1018,1 16 -
23.01.2019 16:00:00 5,6 -4,4 24 13 - - NW 1018,1 16 -
23.01.2019 15:00:00 4,4 -4,4 13 7 - - NW 1018,5 16 -
23.01.2019 14:00:00 3,9 -4,4 26 14 - - NW 1018,5 16 -
23.01.2019 13:00:00 3,3 -4,4 18 10 - - WNW 1019,0 16 -
23.01.2019 12:00:00 1,7 -5,6 22 12 - - WNW 1020,2 16 -
23.01.2019 11:00:00 1,1 -5,6 26 14 48 26 NNW 1020,3 16 -
23.01.2019 10:00:00 0,6 -6,1 24 13 50 27 NNW 1019,9 16 -
23.01.2019 09:00:00 -0,6 -6,1 31 17 - - NNW 1019,2 16 -
23.01.2019 08:00:00 0,0 -5,6 24 13 - - NW 1019,6 16 -
23.01.2019 07:00:00 0,6 -3,9 16 9 - - NNW 1018,6 16 -
23.01.2019 06:00:00 1,1 -3,3 24 13 - - NNW 1018,8 16 -
23.01.2019 05:00:00 1,1 -3,3 24 13 - - NW 1019,7 16 -
23.01.2019 04:00:00 1,1 -1,7 24 13 - - NNW 1017,5 16 -
23.01.2019 03:00:00 1,7 0,0 24 13 - - NNW 1016,4 16 0,5
23.01.2019 02:00:00 2,2 0,6 18 10 - - NNW 1018,0 16 0,3
23.01.2019 01:00:00 3,3 1,1 26 14 54 29 NW 1018,1 16 0,3
23.01.2019 00:00:00 3,9 2,2 24 13 50 27 NNW 1014,6 16 0,8
22.01.2019 23:00:00 5,0 3,9 24 13 55 30 NNW 1015,1 8 3,0
22.01.2019 22:00:00 6,1 5,0 31 17 52 28 NW 1014,6 6 1,0
22.01.2019 21:00:00 11,1 10,6 44 24 57 31 NW 1011,9 10 7,9
22.01.2019 20:00:00 17,2 15,6 16 9 - - SSW 1010,1 16 0,3
22.01.2019 19:00:00 17,8 14,4 15 8 - - S 1009,9 16 0,0
22.01.2019 18:00:00 17,8 14,4 15 8 - - S 1009,1 16 0,3
22.01.2019 17:00:00 18,3 13,3 21 11 - - S 1009,4 6 0,0
22.01.2019 16:00:00 17,8 13,9 29 16 - - SSE 1008,2 6 0,0
22.01.2019 15:00:00 18,3 12,8 16 9 - - S 1009,8 16 -
22.01.2019 14:00:00 18,3 12,8 16 9 - - SSE 1009,6 16 -
22.01.2019 13:00:00 17,8 12,2 22 12 - - SSE 1010,7 16 -
22.01.2019 12:00:00 17,8 11,7 31 17 52 28 S 1011,3 16 -
22.01.2019 11:00:00 17,2 11,7 29 16 48 26 SSE 1011,7 16 -
22.01.2019 10:00:00 16,1 11,7 28 15 - - SSE 1012,2 16 -
22.01.2019 09:00:00 14,4 11,1 26 14 - - SSE 1012,4 16 -
22.01.2019 08:00:00 13,9 11,1 21 11 - - SSE 1012,7 16 -
22.01.2019 07:00:00 12,2 10,6 22 12 - - SSE 1012,4 16 -
22.01.2019 06:00:00 12,2 10,0 22 12 - - SSE 1012,3 16 -
22.01.2019 05:00:00 12,2 10,0 24 13 - - SSE 1012,1 16 -
22.01.2019 04:00:00 11,7 9,4 21 11 48 26 SSE 1013,1 16 -
22.01.2019 03:00:00 11,7 9,4 22 12 - - SSE 1014,0 16 -
22.01.2019 02:00:00 11,7 8,9 22 12 - - SSE 1015,2 16 -
22.01.2019 01:00:00 11,1 7,8 21 11 - - S 1015,2 16 -
22.01.2019 00:00:00 11,1 7,8 24 13 - - S 1015,3 16 -
21.01.2019 23:00:00 10,6 7,2 28 15 50 27 S 1015,0 16 -
21.01.2019 22:00:00 10,6 7,2 35 19 48 26 S 1015,0 16 -
21.01.2019 21:00:00 10,0 6,7 28 15 - - SSE 1016,1 16 -
21.01.2019 20:00:00 10,0 5,6 22 12 - - SSE 1016,7 16 -
21.01.2019 19:00:00 10,6 5,0 24 13 - - SSE 1017,0 16 -
21.01.2019 18:00:00 11,1 4,4 22 12 - - SSE 1017,5 16 -
21.01.2019 17:00:00 12,8 3,9 26 14 - - SSE 1017,8 16 -
21.01.2019 16:00:00 13,3 2,2 24 13 - - SSE 1018,3 16 -
21.01.2019 15:00:00 13,3 1,1 35 19 - - SE 1018,6 16 -
21.01.2019 14:00:00 12,8 1,1 24 13 - - SE 1019,6 16 -
21.01.2019 13:00:00 11,7 1,1 26 14 - - S 1021,8 16 -
21.01.2019 12:00:00 9,4 0,6 24 13 - - SSE 1022,7 16 -
21.01.2019 11:00:00 7,8 0,0 26 14 - - SE 1023,0 16 -
21.01.2019 10:00:00 6,1 -1,1 28 15 - - SSE 1023,5 16 -
21.01.2019 09:00:00 5,0 -1,7 26 14 - - SSE 1023,4 16 -
21.01.2019 08:00:00 1,7 -2,2 18 10 - - SE 1023,8 16 -
21.01.2019 07:00:00 1,1 -2,2 16 9 - - SE 1024,3 16 -
21.01.2019 06:00:00 1,7 -2,2 21 11 - - SE 1023,8 16 -
21.01.2019 05:00:00 1,7 -2,8 18 10 - - SE 1023,3 16 -
21.01.2019 04:00:00 1,1 -2,8 13 7 - - SSE 1023,6 16 -
21.01.2019 03:00:00 1,7 -2,8 13 7 - - SE 1024,0 16 -
21.01.2019 02:00:00 1,1 -2,8 13 7 - - SSE 1024,3 16 -
21.01.2019 01:00:00 0,6 -3,3 9 5 - - S 1024,5 16 -
21.01.2019 00:00:00 0,6 -2,8 5 3 - - S 1024,9 16 -
20.01.2019 23:00:00 2,8 -3,3 0 0 - - N 1024,6 16 -
20.01.2019 22:00:00 2,2 -3,3 8 4 - - S 1024,5 16 -
20.01.2019 21:00:00 2,2 -2,8 9 5 - - SSE 1024,5 16 -
20.01.2019 20:00:00 2,8 -2,8 8 4 - - SSE 1024,7 16 -
20.01.2019 19:00:00 3,9 -3,3 5 3 - - SSE 1024,8 16 -
20.01.2019 18:00:00 6,1 -3,9 9 5 - - SSW 1025,0 16 -
20.01.2019 17:00:00 8,3 -5,0 8 4 - - SSE 1024,9 16 -
20.01.2019 16:00:00 8,3 -7,2 0 0 - - N 1025,5 16 -
20.01.2019 15:00:00 7,8 -6,7 8 4 - - ESE 1025,9 16 -
20.01.2019 14:00:00 7,2 -7,2 0 0 - - N 1027,1 16 -
20.01.2019 13:00:00 5,6 -6,7 8 4 - - WSW 1028,5 16 -
20.01.2019 12:00:00 3,3 -6,7 0 0 - - N 1029,5 16 -
20.01.2019 11:00:00 2,2 -6,1 8 4 - - NW 1030,1 16 -
20.01.2019 10:00:00 0,0 -6,1 8 4 - - N 1029,7 16 -
20.01.2019 09:00:00 -1,7 -6,1 15 8 - - NNW 1029,4 16 -
20.01.2019 08:00:00 -3,3 -6,1 13 7 - - NNW 1029,5 16 -
20.01.2019 07:00:00 -3,9 -6,7 8 4 - - WNW 1028,0 16 -
20.01.2019 06:00:00 -3,3 -6,7 0 0 - - N 1026,8 16 -
20.01.2019 05:00:00 -2,8 -6,7 9 5 - - NW 1027,5 16 -
20.01.2019 04:00:00 -2,8 -6,1 11 6 - - NW 1027,6 16 -
20.01.2019 03:00:00 -2,2 -6,1 15 8 - - NW 1027,3 16 -
20.01.2019 02:00:00 -1,7 -6,1 16 9 - - N 1026,8 16 -
20.01.2019 01:00:00 -1,1 -6,1 18 10 - - NNW 1026,7 16 -
20.01.2019 00:00:00 -0,6 -6,7 26 14 - - NNW 1026,5 16 -
19.01.2019 23:00:00 0,0 -6,1 21 11 - - NNW 1025,0 16 -
19.01.2019 22:00:00 0,6 -5,0 15 8 - - NNW 1025,3 16 -
19.01.2019 21:00:00 0,6 -5,0 22 12 - - NNW 1025,1 16 -
19.01.2019 20:00:00 1,7 -5,0 29 16 48 26 NNW 1024,9 16 -
19.01.2019 19:00:00 1,7 -4,4 28 15 - - NW 1023,6 16 -
19.01.2019 18:00:00 1,7 -4,4 31 17 57 31 NW 1022,4 16 -
19.01.2019 17:00:00 1,7 -5,0 26 14 54 29 NNW 1021,3 16 -
19.01.2019 16:00:00 2,2 -4,4 29 16 50 27 NW 1020,0 16 -
19.01.2019 15:00:00 2,2 -3,9 29 16 54 29 NW 1018,5 16 -
19.01.2019 14:00:00 2,2 -4,4 39 21 61 33 NW 1017,8 16 -
19.01.2019 13:00:00 2,2 -3,9 29 16 61 33 NW 1017,8 16 -
19.01.2019 12:00:00 2,8 -2,8 37 20 57 31 WNW 1017,4 16 -
19.01.2019 11:00:00 2,2 -2,8 39 21 59 32 NNW 1016,7 16 -
19.01.2019 10:00:00 2,8 -2,2 37 20 65 35 NW 1015,8 16 -
19.01.2019 09:00:00 2,8 -1,1 34 18 67 36 NW 1014,3 16 -
19.01.2019 08:00:00 2,8 0,0 34 18 70 38 NNW 1012,9 16 0,0
19.01.2019 07:00:00 5,0 3,3 37 20 67 36 NW 1010,6 16 0,0
19.01.2019 06:00:00 7,8 5,0 34 18 67 36 WNW 1008,5 16 -
19.01.2019 05:00:00 10,6 7,2 46 25 65 35 WNW 1006,2 16 -
19.01.2019 04:00:00 15,0 9,4 28 15 57 31 W 1003,9 16 -
19.01.2019 03:00:00 15,6 10,6 11 6 - - W 1003,1 16 -
19.01.2019 02:00:00 16,7 12,8 22 12 - - WSW 1004,4 16 -
19.01.2019 01:00:00 16,1 15,0 21 11 55 30 W 1006,4 16 5,8
19.01.2019 00:00:00 18,9 16,7 28 15 - - SSW 1004,8 16 0,0
18.01.2019 23:00:00 18,9 17,2 26 14 - - SSW 1005,7 16 -
18.01.2019 22:00:00 18,9 17,2 26 14 - - SSW 1005,5 16 -
18.01.2019 21:00:00 18,3 17,2 22 12 - - SSW 1006,2 16 -
18.01.2019 20:00:00 18,3 17,2 29 16 - - SSW 1005,9 16 -
18.01.2019 19:00:00 17,8 16,7 24 13 - - SSW 1005,9 6 -
18.01.2019 18:00:00 16,7 16,1 26 14 - - S 1006,1 3,2 -
18.01.2019 17:00:00 16,7 16,1 21 11 - - S 1007,3 3,2 0,0
18.01.2019 16:00:00 16,1 15,6 21 11 - - S 1008,1 3,2 0,0
18.01.2019 15:00:00 15,6 15,0 21 11 - - S 1008,9 3,2 0,0
18.01.2019 14:00:00 15,6 13,9 22 12 - - S 1009,9 6 -
18.01.2019 13:00:00 14,4 12,8 26 14 - - S 1011,4 16 -
18.01.2019 12:00:00 14,4 12,2 26 14 - - S 1013,5 16 -
18.01.2019 11:00:00 11,7 10,0 21 11 - - S 1015,5 16 -
18.01.2019 10:00:00 11,1 9,4 18 10 - - SSE 1015,4 16 -
18.01.2019 09:00:00 10,0 8,9 11 6 - - SE 1015,7 11 -
18.01.2019 08:00:00 8,9 8,3 13 7 - - SE 1015,7 15 -
18.01.2019 07:00:00 7,8 7,2 11 6 - - SE 1016,3 13 -
18.01.2019 06:00:00 7,8 7,2 9 5 - - SE 1016,7 13 -
18.01.2019 05:00:00 6,7 6,1 8 4 - - SE 1017,4 10 -
18.01.2019 04:00:00 7,2 6,7 9 5 - - SE 1017,9 15 -
18.01.2019 03:00:00 7,2 6,1 5 3 - - NE 1018,8 13 -
18.01.2019 02:00:00 6,7 5,6 5 3 - - ENE 1018,7 11 -
18.01.2019 01:00:00 6,7 5,0 0 0 - - N 1019,2 16 -
18.01.2019 00:00:00 7,2 6,1 0 0 - - N 1019,7 15 -
17.01.2019 23:00:00 7,8 6,7 0 0 - - N 1019,7 16 -
17.01.2019 22:00:00 8,9 7,2 0 0 - - N 1019,3 16 -
17.01.2019 21:00:00 8,9 7,2 0 0 - - N 1019,5 16 -
17.01.2019 20:00:00 10,0 7,8 0 0 - - N 1019,7 16 -
17.01.2019 19:00:00 11,7 8,3 0 0 - - N 1019,5 16 -
17.01.2019 18:00:00 12,8 8,9 9 5 - - NW 1019,1 16 -
17.01.2019 17:00:00 15,6 8,9 15 8 - - WNW 1019,0 16 -

tt = temperature
td = dewpoint
ff = wind speed
fx = gusts
dd = wind direction
ppp = reduced air pressure
vv = visibility
rr = precipitation

Next stations